Time,TemperatureF,DewpointF,PressureIn,WindDirection,WindDirectionDegrees,WindSpeedMPH,WindSpeedGustMPH,Humidity,HourlyPrecipIn,Conditions,Clouds,dailyrainin,SoftwareType,DateUTC
2017-02-22 00:05:00,48.5,38.4,29.97,NNW,343,0.0,5.0,68,0.00,,,0.00,Wunderground v.1.15,2017-02-22 06:05:00,
2017-02-22 00:10:00,47.9,38.2,29.97,NNW,343,0.0,5.0,69,0.00,,,0.00,Wunderground v.1.15,2017-02-22 06:10:00,
2017-02-22 00:15:00,47.4,38.1,29.97,NNW,343,0.0,5.0,70,0.00,,,0.00,Wunderground v.1.15,2017-02-22 06:15:00,
2017-02-22 00:20:00,47.0,38.1,29.97,NNW,343,0.0,5.0,71,0.00,,,0.00,Wunderground v.1.15,2017-02-22 06:20:00,
2017-02-22 00:25:00,46.6,38.1,29.97,NNW,343,0.0,5.0,72,0.00,,,0.00,Wunderground v.1.15,2017-02-22 06:25:00,
2017-02-22 00:30:00,46.3,38.1,29.97,NNW,343,0.0,5.0,73,0.00,,,0.00,Wunderground v.1.15,2017-02-22 06:30:00,
2017-02-22 00:40:00,45.9,38.1,29.97,NNW,343,0.0,5.0,74,0.00,,,0.00,Wunderground v.1.15,2017-02-22 06:40:00,
2017-02-22 00:45:00,45.7,37.9,29.97,NNW,343,0.0,5.0,74,0.00,,,0.00,Wunderground v.1.15,2017-02-22 06:45:00,
2017-02-22 00:50:00,45.6,38.1,29.97,NNW,343,0.0,5.0,75,0.00,,,0.00,Wunderground v.1.15,2017-02-22 06:50:00,
2017-02-22 00:55:00,45.6,38.1,29.97,NNW,343,0.0,5.0,75,0.00,,,0.00,Wunderground v.1.15,2017-02-22 06:55:00,
2017-02-22 01:00:00,46.2,38.4,29.97,NNW,344,0.0,5.0,74,0.00,,,0.00,Wunderground v.1.15,2017-02-22 07:00:00,
2017-02-22 01:10:00,47.2,38.3,29.97,NNW,344,0.0,5.0,71,0.00,,,0.00,Wunderground v.1.15,2017-02-22 07:10:00,
2017-02-22 01:15:00,47.5,38.2,29.97,NNW,344,0.0,5.0,70,0.00,,,0.00,Wunderground v.1.15,2017-02-22 07:15:00,
2017-02-22 01:20:00,47.5,37.8,29.97,NNW,344,0.0,5.0,69,0.00,,,0.00,Wunderground v.1.15,2017-02-22 07:20:00,
2017-02-22 01:25:00,47.4,38.1,29.97,NNW,344,0.0,5.0,70,0.00,,,0.00,Wunderground v.1.15,2017-02-22 07:25:00,
2017-02-22 01:30:00,47.2,38.3,29.97,NNW,344,0.0,5.0,71,0.00,,,0.00,Wunderground v.1.15,2017-02-22 07:30:00,
2017-02-22 01:35:00,46.9,38.0,29.97,NNW,344,0.0,5.0,71,0.00,,,0.00,Wunderground v.1.15,2017-02-22 07:35:00,
2017-02-22 01:40:00,46.6,38.1,29.97,NNW,344,0.0,5.0,72,0.00,,,0.00,Wunderground v.1.15,2017-02-22 07:40:00,
2017-02-22 01:45:00,46.3,38.1,29.97,NNW,344,0.0,5.0,73,0.00,,,0.00,Wunderground v.1.15,2017-02-22 07:45:00,
2017-02-22 01:50:00,46.1,38.3,29.97,NNW,343,0.0,5.0,74,0.00,,,0.00,Wunderground v.1.15,2017-02-22 07:50:00,
2017-02-22 01:55:00,46.0,38.2,29.97,NNW,343,0.0,5.0,74,0.00,,,0.00,Wunderground v.1.15,2017-02-22 07:55:00,
2017-02-22 02:00:00,46.0,38.2,29.97,NNW,343,0.0,5.0,74,0.00,,,0.00,Wunderground v.1.15,2017-02-22 08:00:00,
2017-02-22 02:05:00,45.9,38.1,29.97,NNW,343,0.0,5.0,74,0.00,,,0.00,Wunderground v.1.15,2017-02-22 08:05:00,
2017-02-22 02:15:00,45.6,37.8,29.97,NNW,343,0.0,0.0,74,0.00,,,0.00,Wunderground v.1.15,2017-02-22 08:15:00,
2017-02-22 02:20:00,45.7,37.5,29.97,NNW,343,0.0,0.0,73,0.00,,,0.00,Wunderground v.1.15,2017-02-22 08:20:00,
2017-02-22 02:25:00,46.0,37.5,29.96,NNW,343,0.0,0.0,72,0.00,,,0.00,Wunderground v.1.15,2017-02-22 08:25:00,
2017-02-22 02:30:00,46.1,37.6,29.96,NNW,343,0.0,0.0,72,0.00,,,0.00,Wunderground v.1.15,2017-02-22 08:30:00,
2017-02-22 02:35:00,46.1,37.6,29.96,NNW,343,0.0,0.0,72,0.00,,,0.00,Wunderground v.1.15,2017-02-22 08:35:00,
2017-02-22 02:45:00,46.1,37.9,29.96,NNW,343,0.0,0.0,73,0.00,,,0.00,Wunderground v.1.15,2017-02-22 08:45:00,
2017-02-22 02:50:00,46.1,37.9,29.96,NNW,343,0.0,0.0,73,0.00,,,0.00,Wunderground v.1.15,2017-02-22 08:50:00,
2017-02-22 02:55:00,46.0,37.5,29.96,NNW,343,0.0,0.0,72,0.00,,,0.00,Wunderground v.1.15,2017-02-22 08:55:00,
2017-02-22 03:00:00,45.8,37.6,29.95,NNW,343,0.0,0.0,73,0.00,,,0.00,Wunderground v.1.15,2017-02-22 09:00:00,
2017-02-22 03:05:00,45.9,37.0,29.95,NNW,343,0.0,1.0,71,0.00,,,0.00,Wunderground v.1.15,2017-02-22 09:05:00,
2017-02-22 03:10:00,46.1,36.9,29.95,NNW,343,0.0,1.0,70,0.00,,,0.00,Wunderground v.1.15,2017-02-22 09:10:00,
2017-02-22 03:20:00,46.4,36.8,29.95,NNW,343,0.0,1.0,69,0.00,,,0.00,Wunderground v.1.15,2017-02-22 09:20:00,
2017-02-22 03:25:00,47.0,37.0,29.95,NNW,343,0.0,1.0,68,0.00,,,0.00,Wunderground v.1.15,2017-02-22 09:25:00,
2017-02-22 03:30:00,47.6,36.8,29.95,NNW,343,0.0,1.0,66,0.00,,,0.00,Wunderground v.1.15,2017-02-22 09:30:00,
2017-02-22 03:35:00,48.0,37.2,29.95,NNW,343,0.0,1.0,66,0.00,,,0.00,Wunderground v.1.15,2017-02-22 09:35:00,
2017-02-22 03:40:00,48.1,36.9,29.95,NNW,343,0.0,1.0,65,0.00,,,0.00,Wunderground v.1.15,2017-02-22 09:40:00,
2017-02-22 03:50:00,47.8,37.0,29.95,NNW,343,0.0,1.0,66,0.00,,,0.00,Wunderground v.1.15,2017-02-22 09:50:00,
2017-02-22 03:55:00,47.6,37.6,29.95,NNW,343,0.0,1.0,68,0.00,,,0.00,Wunderground v.1.15,2017-02-22 09:55:00,
2017-02-22 04:00:00,47.2,36.8,29.95,NNW,343,0.0,1.0,67,0.00,,,0.00,Wunderground v.1.15,2017-02-22 10:00:00,
2017-02-22 04:05:00,47.3,36.9,29.95,NNW,343,0.0,1.0,67,0.00,,,0.00,Wunderground v.1.15,2017-02-22 10:05:00,
2017-02-22 04:10:00,47.3,36.9,29.95,NNW,343,0.0,1.0,67,0.00,,,0.00,Wunderground v.1.15,2017-02-22 10:10:00,
2017-02-22 04:15:00,47.3,37.3,29.95,NNW,343,0.0,1.0,68,0.00,,,0.00,Wunderground v.1.15,2017-02-22 10:15:00,
2017-02-22 04:25:00,47.0,37.4,29.95,NNW,343,0.0,1.0,69,0.00,,,0.00,Wunderground v.1.15,2017-02-22 10:25:00,
2017-02-22 04:30:00,47.1,37.1,29.95,NNW,343,0.0,1.0,68,0.00,,,0.00,Wunderground v.1.15,2017-02-22 10:30:00,
2017-02-22 04:35:00,47.4,37.0,29.94,NNW,343,0.0,1.0,67,0.00,,,0.00,Wunderground v.1.15,2017-02-22 10:35:00,
2017-02-22 04:40:00,47.7,37.3,29.94,NNW,343,0.0,1.0,67,0.00,,,0.00,Wunderground v.1.15,2017-02-22 10:40:00,
2017-02-22 04:45:00,47.8,37.0,29.95,NNW,343,0.0,1.0,66,0.00,,,0.00,Wunderground v.1.15,2017-02-22 10:45:00,
2017-02-22 04:55:00,47.9,37.1,29.95,NNW,343,0.0,1.0,66,0.00,,,0.00,Wunderground v.1.15,2017-02-22 10:55:00,
2017-02-22 05:00:00,48.2,37.0,29.95,NNW,343,0.0,1.0,65,0.00,,,0.00,Wunderground v.1.15,2017-02-22 11:00:00,